This demonstration page uses our WeatherBlox Daily Observations layout. Learn more.

Left ArrowRight Arrow

39.08367, -84.50855

Hourly Observations for May 8, 2021

Temp ( °F °C ) Dew Point ( °F °C ) Humidity (%) Winds ( mph kmh ) Pressure ( in mb ) Visibility ( mi km ) Precip ( " mm )
12:53 am 00:53 Partly Cloudy 48 8.9 38 3.3 68 68 NNW 9 15 30.02 1017 10 16.0934 N/A
1:53 am 01:53 Clear 46 7.8 34 1.1 63 63 WNW 5 7 30.03 1017 10 16.0934 N/A
2:53 am 02:53 Clear 45 7.2 34 1.1 66 66 NW 6 9 30.04 1017 10 16.0934 N/A
3:53 am 03:53 Clear 43 6.1 33 0.6 68 68 NW 5 7 30.05 1018 10 16.0934 N/A
4:53 am 04:53 Clear 40 4.4 33 0.6 77 77 NW 7 11 30.06 1018 10 16.0934 N/A
5:53 am 05:53 Clear 40 4.4 33 0.6 77 77 NNW 5 7 30.09 1019 10 16.0934 N/A
6:53 am 06:53 Sunny 38 3.3 35 1.7 89 89 SSE 3 6 30.11 1020 10 16.0934 N/A
7:53 am 07:53 Sunny 42 5.6 35 1.7 76 76 N 3 6 30.13 1020 10 16.0934 N/A
8:53 am 08:53 Sunny 45 7.2 35 1.7 68 68 N 7 11 30.14 1021 10 16.0934 N/A
9:53 am 09:53 Sunny 49 9.4 35 1.7 59 59 NNE 5 7 30.16 1021 10 16.0934 N/A
10:53 am 10:53 Sunny 51 10.6 35 1.7 54 54 NNE 7 11 30.16 1021 10 16.0934 N/A
11:53 am 11:53 Mostly Sunny 53 11.7 35 1.7 51 51 NW 9 15 30.16 1021 10 16.0934 N/A
12:53 pm 12:53 Mostly Sunny 55 12.8 33 0.6 44 44 N 8 13 30.15 1021 10 16.0934 N/A
1:53 pm 13:53 Mostly Sunny 56 13.3 34 1.1 44 44 VRB 3 6 30.14 1021 10 16.0934 N/A
2:53 pm 14:53 Mostly Sunny 58 14.4 36 2.2 44 44 NNE 6 9 30.12 1020 10 16.0934 N/A
3:53 pm 15:53 Sunny 59 15 36 2.2 42 42 undefined N/A 30.1 1019 10 16.0934 N/A
4:53 pm 16:53 Sunny 59 15 33 0.6 38 38 N N/A 30.09 1019 10 16.0934 N/A
5:53 pm 17:53 Sunny 60 15.6 34 1.1 38 38 VRB 5 7 30.08 1019 10 16.0934 N/A
6:53 pm 18:53 Sunny 59 15 34 1.1 39 39 SSW 5 7 30.07 1018 10 16.0934 N/A
7:53 pm 19:53 Sunny 57 13.9 36 2.2 45 45 SE 3 6 30.06 1018 10 16.0934 N/A
8:53 pm 20:53 Mostly Cloudy 53 11.7 44 6.7 72 72 E 3 6 30.05 1018 10 16.0934 N/A
9:53 pm 21:53 Cloudy 53 11.7 44 6.7 72 72 N N/A 30.05 1018 10 16.0934 N/A
10:53 pm 22:53 Cloudy 53 11.7 45 7.2 74 74 N N/A 30.03 1017 10 16.0934 N/A
11:53 pm 23:53 Cloudy 52 11.1 47 8.3 83 83 NE 3 6 30.03 1017 10 16.0934 N/A

Powered by AerisWeather